Weather History for Frenchville, ME

Change the Weather History Date:

Wednesday, July 17, 2013

  Actual Average Record
Temperature  
Mean Temperature 70 °F 65 °F  
Max Temperature 83 °F 74 °F 89 °F (1999)
Min Temperature 57 °F 55 °F 52 °F (2002)
Degree Days  
Heating Degree Days 0    
Month to date heating degree days 13  
Since 1 July heating degree days 13  
Cooling Degree Days 5    
Month to date cooling degree days 81  
Year to date cooling degree days 106  
Growing Degree Days 20 (Base 50)    
Moisture  
Dew Point 64 °F    
Average Humidity 84    
Maximum Humidity 100    
Minimum Humidity 52    
Precipitation  
Precipitation 0.21 in 0.13 in 0.36 in (2012)
Month to date precipitation 0.21 2.61  
Year to date precipitation 15.86 16.36  
Sea Level Pressure  
Sea Level Pressure 29.99 in    
Wind  
Wind Speed 7 mph (South)    
Max Wind Speed 26 mph    
Max Gust Speed 33 mph    
Visibility 9 miles    
Events Rain , Thunderstorm    
T = Trace of Precipitation, MM = Missing Value Source: NWS Daily Summary

Daily Weather History Graph

Daily Weather History Graph

Search for Another Location

Airport:

Trip Planner

Search our weather history database for the weather conditions in past years. The results will help you decide how hot, cold, wet, or windy it might be!

Date:

Astronomy

Jul. 17, 2013 Rise Set
Actual Time 4:54 AM EDT 8:23 PM EDT
Civil Twilight 4:16 AM EDT 9:01 PM EDT
Nautical Twilight 3:25 AM EDT 9:51 PM EDT
Astronomical Twilight 2:18 AM EDT 10:58 PM EDT
Moon 3:03 PM EDT (7/17) 12:07 AM EDT (7/17)
Length of Visible Light 16h 45m
Length of Day
15h 29m
Waxing Gibbous, 67% of the Moon is Illuminated
Jul 17
Waxing Gibbous
Jul 22
Full
Jul 29
Last Quarter
Aug 6
New
Aug 14
First Quarter

Hourly Weather History & Observations

Time (EDT) Temp. Heat Index Dew Point Humidity Pressure Visibility Wind Dir Wind Speed Gust Speed Precip Events Conditions
12:53 AM 66.9 °F - 48.9 °F 52% 30.14 in 10.0 mi East 5.8 mph - N/A   Clear
1:53 AM 64.9 °F - 50.0 °F 58% 30.14 in 10.0 mi East 3.5 mph - N/A   Clear
2:53 AM 62.1 °F - 51.1 °F 67% 30.12 in 10.0 mi East 4.6 mph - N/A   Partly Cloudy
3:53 AM 60.1 °F - 51.1 °F 72% 30.11 in 10.0 mi East 8.1 mph - N/A   Clear
4:53 AM 57.9 °F - 53.1 °F 84% 30.11 in 10.0 mi ESE 6.9 mph - N/A   Clear
5:53 AM 60.1 °F - 55.9 °F 86% 30.10 in 10.0 mi SSE 8.1 mph - N/A   Clear
6:53 AM 62.1 °F - 59.0 °F 90% 30.09 in 10.0 mi SSE 6.9 mph - N/A   Overcast
7:53 AM 66.0 °F - 61.0 °F 84% 30.07 in 10.0 mi SSE 9.2 mph - N/A   Scattered Clouds
8:53 AM 68.0 °F - 62.1 °F 81% 30.05 in 10.0 mi South 6.9 mph - N/A   Mostly Cloudy
9:53 AM 68.0 °F - 63.0 °F 84% 30.05 in 9.0 mi SW 9.2 mph - 0.00 in Rain Light Rain
10:31 AM 66.2 °F - 64.4 °F 94% 30.07 in 2.0 mi SW 5.8 mph - 0.09 in Rain Heavy Rain
10:53 AM 64.9 °F - 64.0 °F 97% 30.05 in 2.0 mi South 4.6 mph - 0.17 in Rain Heavy Rain
11:06 AM 64.4 °F - 64.4 °F 100% 30.04 in 3.0 mi Calm Calm - 0.02 in Rain Light Rain
11:25 AM 64.4 °F - 64.4 °F 100% 30.02 in 5.0 mi South 9.2 mph - 0.02 in Rain Light Rain
11:34 AM 66.2 °F - 64.4 °F 94% 30.01 in 6.0 mi South 8.1 mph - 0.02 in   Overcast
11:53 AM 66.9 °F - 64.9 °F 93% 30.00 in 8.0 mi SSW 11.5 mph - 0.02 in   Overcast
12:28 PM 69.8 °F - 66.2 °F 88% 30.00 in 10.0 mi SW 11.5 mph - N/A   Overcast
12:53 PM 72.0 °F - 68.0 °F 87% 29.97 in 10.0 mi SSW 9.2 mph 17.3 mph N/A   Overcast
1:42 PM 75.2 °F - 69.8 °F 83% 29.97 in 10.0 mi SSW 5.8 mph - N/A   Overcast
1:53 PM 75.0 °F - 71.1 °F 87% 29.96 in 10.0 mi SSW 5.8 mph - N/A   Overcast
2:20 PM 78.8 °F - 71.6 °F 78% 29.95 in 10.0 mi SW 5.8 mph - N/A   Mostly Cloudy
2:53 PM 79.0 °F - 70.0 °F 74% 29.93 in 10.0 mi SSW 4.6 mph - N/A   Overcast
3:29 PM 80.6 °F 84.6 °F 71.6 °F 74% 29.91 in 10.0 mi Variable 5.8 mph - N/A Thunderstorm Overcast
3:42 PM 80.6 °F 84.6 °F 71.6 °F 74% 29.91 in 10.0 mi SW 8.1 mph - N/A Thunderstorm Overcast
3:53 PM 82.0 °F 86.3 °F 71.1 °F 69% 29.88 in 10.0 mi Variable 5.8 mph - N/A Thunderstorm Overcast
4:33 PM 71.6 °F - 64.4 °F 78% 29.90 in 3.0 mi NNE 12.7 mph 21.9 mph 0.00 in Thunderstorm Unknown
4:53 PM 70.0 °F - 66.0 °F 87% 29.89 in 10.0 mi East 8.1 mph - 0.01 in Rain , Thunderstorm Light Thunderstorms and Rain
5:53 PM 71.1 °F - 66.9 °F 87% 29.87 in 10.0 mi ESE 3.5 mph - 0.00 in Thunderstorm Mostly Cloudy
6:17 PM 71.6 °F - 66.2 °F 83% 29.91 in 10.0 mi SSW 5.8 mph - N/A   Partly Cloudy
6:53 PM 70.0 °F - 66.9 °F 90% 29.91 in 10.0 mi SSW 5.8 mph - 0.00 in Rain Light Rain
7:53 PM 69.1 °F - 66.9 °F 93% 29.89 in 10.0 mi WSW 6.9 mph - 0.00 in   Clear
8:53 PM 68.0 °F - 66.9 °F 96% 29.91 in 10.0 mi SSW 9.2 mph - N/A   Mostly Cloudy
9:53 PM 66.9 °F - 66.0 °F 97% 29.90 in 10.0 mi Calm Calm - 0.01 in Rain Light Rain
10:53 PM 66.0 °F - 66.0 °F 100% 29.89 in 10.0 mi SSW 4.6 mph - 0.00 in   Overcast
11:53 PM 66.0 °F - 64.0 °F 93% 29.91 in 10.0 mi SW 6.9 mph - N/A   Overcast